Algona, IA

9:57 PM CDT on May 25, 2018 (GMT -0500)
Algona Municipal

Weather History for KAXA - April, 2014

Change the Weather History Date:

Tuesday, April 1, 2014

  Actual Average Record
Temperature  
Mean Temperature 32 °F -  
Max Temperature 42 °F 48 °F 82 °F (2015)
Min Temperature 21 °F 30 °F 17 °F (2018)
Degree Days  
Heating Degree Days 34    
Moisture  
Dew Point 21 °F    
Average Humidity 69    
Maximum Humidity 93    
Minimum Humidity 53    
Precipitation  
Precipitation 0.00 in - - ()
Sea Level Pressure  
Sea Level Pressure 29.95 in    
Wind  
Wind Speed 21 mph (NW)    
Max Wind Speed 34 mph    
Max Gust Speed 41 mph    
Visibility 10 miles    
Events Snow    
Averages and records for this station are not official NWS values.
T = Trace of Precipitation, MM = Missing Value Source: NWS Daily Summary

Daily Weather History Graph

Daily Weather History Graph

Search for Another Location

Airport or City:

Astronomy

Apr. 01, 2014 Rise Set
Actual Time 6:59 AM CDT 7:43 PM CDT
Civil Twilight 6:30 AM CDT 8:12 PM CDT
Nautical Twilight 5:56 AM CDT 8:46 PM CDT
Astronomical Twilight 5:21 AM CDT 9:21 PM CDT
Moon 7:59 AM CDT (4/1) 10:10 PM CDT (4/1)
Length of Visible Light 13h 41m
Length of Day
12h 44m
Waxing Crescent, 5% of the Moon is Illuminated
Apr 1
Waxing Crescent
Apr 7
First Quarter
Apr 15
Full
Apr 22
Last Quarter
Apr 29
New

Hourly Weather History & Observations

Time (CDT) Temp. Windchill Dew Point Humidity Pressure Visibility Wind Dir Wind Speed Gust Speed Precip Events Conditions
12:15 AM 23.0 °F 6.3 °F 15.8 °F 74% 29.67 in 10.0 mi West 26.5 mph 38.0 mph N/A   Overcast
12:35 AM 23.0 °F 4.4 °F 15.8 °F 74% 29.68 in 10.0 mi West 34.5 mph 41.4 mph N/A   Overcast
1:15 AM 23.0 °F 5.4 °F 15.8 °F 74% 29.71 in 8.0 mi West 29.9 mph 35.7 mph N/A Snow Light Snow
1:35 AM 21.2 °F 3.5 °F 15.8 °F 80% 29.71 in 9.0 mi West 27.6 mph 36.8 mph N/A Snow Light Snow
1:55 AM 23.0 °F 5.4 °F 14.0 °F 68% 29.72 in 10.0 mi WNW 29.9 mph 41.4 mph N/A   Overcast
2:15 AM 23.0 °F 4.9 °F 14.0 °F 68% 29.72 in 10.0 mi WNW 32.2 mph 41.4 mph N/A   Overcast
2:35 AM 23.0 °F 6.0 °F 14.0 °F 68% 29.73 in 10.0 mi WNW 27.6 mph 38.0 mph N/A   Overcast
2:55 AM 23.0 °F 4.9 °F 14.0 °F 68% 29.74 in 10.0 mi WNW 32.2 mph 39.1 mph N/A   Overcast
3:15 AM 23.0 °F 6.9 °F 14.0 °F 68% 29.75 in 10.0 mi WNW 24.2 mph 41.4 mph N/A   Overcast
3:35 AM 21.2 °F 6.0 °F 14.0 °F 74% 29.76 in 10.0 mi WNW 19.6 mph 32.2 mph N/A Snow Light Snow
3:55 AM 21.2 °F 4.5 °F 14.0 °F 74% 29.77 in 10.0 mi WNW 24.2 mph 38.0 mph N/A Snow Light Snow
4:15 AM 21.2 °F 5.2 °F 14.0 °F 74% 29.78 in 8.0 mi WNW 21.9 mph 33.4 mph N/A Snow Light Snow
4:35 AM 21.2 °F 4.9 °F 14.0 °F 74% 29.80 in 9.0 mi NW 23.0 mph 33.4 mph N/A   Overcast
4:55 AM 21.2 °F 4.9 °F 14.0 °F 74% 29.82 in 8.0 mi WNW 23.0 mph 38.0 mph N/A Snow Light Snow
5:15 AM 21.2 °F 5.2 °F 12.2 °F 68% 29.83 in 10.0 mi WNW 21.9 mph 38.0 mph N/A Snow Light Snow
5:35 AM 21.2 °F 4.2 °F 14.0 °F 74% 29.84 in 10.0 mi WNW 25.3 mph 33.4 mph N/A Snow Light Snow
5:55 AM 21.2 °F 3.9 °F 14.0 °F 74% 29.85 in 10.0 mi NW 26.5 mph 34.5 mph N/A Snow Light Snow
6:15 AM 21.2 °F 6.0 °F 14.0 °F 74% 29.86 in 10.0 mi WNW 19.6 mph 35.7 mph N/A   Overcast
6:35 AM 21.2 °F 5.2 °F 12.2 °F 68% 29.87 in 10.0 mi WNW 21.9 mph 29.9 mph N/A   Overcast
6:55 AM 21.2 °F 4.5 °F 12.2 °F 68% 29.89 in 10.0 mi NW 24.2 mph - N/A   Overcast
7:15 AM 21.2 °F 6.8 °F 14.0 °F 74% 29.89 in 10.0 mi NW 17.3 mph 28.8 mph N/A   Overcast
7:35 AM 21.2 °F 6.4 °F 14.0 °F 74% 29.90 in 10.0 mi NW 18.4 mph 29.9 mph N/A   Overcast
7:55 AM 21.2 °F 5.2 °F 12.2 °F 68% 29.91 in 10.0 mi NW 21.9 mph 31.1 mph N/A   Mostly Cloudy
8:15 AM 23.0 °F 8.0 °F 14.0 °F 68% 29.92 in 10.0 mi NW 20.7 mph 28.8 mph N/A   Scattered Clouds
8:35 AM 23.0 °F 8.3 °F 14.0 °F 68% 29.93 in 10.0 mi NW 19.6 mph 33.4 mph N/A   Mostly Cloudy
8:55 AM 24.8 °F 11.1 °F 15.8 °F 69% 29.94 in 10.0 mi NW 18.4 mph 29.9 mph N/A   Scattered Clouds
9:15 AM 24.8 °F 11.1 °F 14.0 °F 64% 29.96 in 10.0 mi WNW 18.4 mph 28.8 mph N/A   Partly Cloudy
9:35 AM 24.8 °F 10.0 °F 14.0 °F 64% 29.96 in 10.0 mi NW 21.9 mph 28.8 mph N/A   Clear
9:55 AM 26.6 °F 11.7 °F 15.8 °F 64% 29.97 in 10.0 mi NW 24.2 mph 31.1 mph N/A   Clear
10:15 AM 28.4 °F 15.1 °F 15.8 °F 59% 29.98 in - NW 20.7 mph 28.8 mph N/A   Clear
10:35 AM 28.4 °F 16.2 °F 17.6 °F 64% 29.99 in 10.0 mi NW 17.3 mph 26.5 mph N/A   Clear
10:55 AM 30.2 °F 18.1 °F 17.6 °F 60% 29.99 in 10.0 mi NW 18.4 mph 25.3 mph N/A   Clear
11:15 AM 30.2 °F 17.8 °F 17.6 °F 60% 29.98 in 10.0 mi NW 19.6 mph 27.6 mph N/A   Clear
11:35 AM 32.0 °F 20.1 °F 19.4 °F 60% 29.99 in 10.0 mi NW 19.6 mph 26.5 mph N/A   Clear
11:55 AM 33.8 °F 22.5 °F 21.2 °F 60% 30.01 in 10.0 mi WNW 19.6 mph - N/A   Clear
12:15 PM 35.6 °F 25.9 °F 23.0 °F 60% 30.01 in 10.0 mi WNW 16.1 mph - N/A   Clear
12:35 PM 37.4 °F 27.8 °F 23.0 °F 56% 30.02 in 10.0 mi WNW 17.3 mph 24.2 mph N/A   Clear
12:55 PM 37.4 °F 27.8 °F 23.0 °F 56% 30.01 in 10.0 mi WNW 17.3 mph 26.5 mph N/A   Clear
1:15 PM 37.4 °F 28.2 °F 23.0 °F 56% 30.01 in 10.0 mi NW 16.1 mph 24.2 mph N/A   Clear
1:35 PM 39.2 °F 30.8 °F 24.8 °F 56% 30.01 in 10.0 mi NW 15.0 mph 25.3 mph N/A   Clear
1:55 PM 39.2 °F 31.6 °F 24.8 °F 56% 30.00 in 10.0 mi NW 12.7 mph 21.9 mph N/A   Clear
2:15 PM 39.2 °F 30.8 °F 24.8 °F 56% 30.00 in 10.0 mi NW 15.0 mph 21.9 mph N/A   Clear
2:35 PM 41.0 °F 33.1 °F 24.8 °F 53% 30.01 in 10.0 mi NW 15.0 mph 21.9 mph N/A   Clear
2:55 PM 42.8 °F 35.4 °F 26.6 °F 53% 30.01 in 10.0 mi WNW 15.0 mph - N/A   Clear
3:15 PM 41.0 °F 34.7 °F 26.6 °F 57% 30.01 in 10.0 mi NNW 10.4 mph 18.4 mph N/A   Clear
3:35 PM 42.8 °F 35.8 °F 26.6 °F 53% 30.01 in 10.0 mi NW 13.8 mph - N/A   Clear
3:55 PM 41.0 °F 34.3 °F 26.6 °F 57% 30.01 in 10.0 mi NW 11.5 mph 19.6 mph N/A   Clear
4:15 PM 42.8 °F 36.6 °F 26.6 °F 53% 30.01 in 10.0 mi NW 11.5 mph - N/A   Clear
4:35 PM 42.8 °F 37.0 °F 26.6 °F 53% 30.02 in 10.0 mi NNW 10.4 mph - N/A   Clear
4:55 PM 41.0 °F 34.7 °F 26.6 °F 57% 30.02 in 10.0 mi NW 10.4 mph - N/A   Clear
5:15 PM 41.0 °F 35.2 °F 26.6 °F 57% 30.02 in 10.0 mi NW 9.2 mph - N/A   Clear
5:35 PM 41.0 °F 34.7 °F 28.4 °F 61% 30.03 in 10.0 mi NW 10.4 mph - N/A   Clear
5:55 PM 41.0 °F 35.8 °F 28.4 °F 61% 30.03 in 10.0 mi NNW 8.1 mph - N/A   Clear
6:15 PM 41.0 °F 36.4 °F 28.4 °F 61% 30.05 in 10.0 mi NW 6.9 mph - N/A   Clear
6:35 PM 39.2 °F 34.2 °F 28.4 °F 65% 30.05 in 10.0 mi NNW 6.9 mph - N/A   Clear
6:55 PM 39.2 °F 33.6 °F 30.2 °F 70% 30.06 in 10.0 mi NNW 8.1 mph - N/A   Clear
7:15 PM 39.2 °F 34.2 °F 30.2 °F 70% 30.07 in 10.0 mi North 6.9 mph - N/A   Partly Cloudy
7:35 PM 37.4 °F 32.8 °F 30.2 °F 75% 30.07 in 10.0 mi North 5.8 mph - N/A   Partly Cloudy
7:55 PM 37.4 °F 32.8 °F 30.2 °F 75% 30.07 in 10.0 mi North 5.8 mph - N/A   Mostly Cloudy
8:15 PM 35.6 °F 29.9 °F 30.2 °F 81% 30.06 in 10.0 mi North 6.9 mph - N/A   Overcast
8:35 PM 35.6 °F 28.0 °F 30.2 °F 81% 30.07 in 10.0 mi NNE 10.4 mph - N/A   Overcast
8:55 PM 33.8 °F 25.8 °F 30.2 °F 87% 30.08 in 10.0 mi NNE 10.4 mph - N/A   Overcast
9:15 PM 33.8 °F 25.8 °F 28.4 °F 81% 30.08 in 10.0 mi NNE 10.4 mph - N/A   Overcast
9:35 PM 33.8 °F 26.4 °F 28.4 °F 81% 30.08 in 10.0 mi NNE 9.2 mph - N/A   Overcast
9:55 PM 32.0 °F 23.6 °F 28.4 °F 87% 30.08 in 10.0 mi NE 10.4 mph - N/A   Overcast
10:15 PM 32.0 °F 23.6 °F 28.4 °F 87% 30.08 in 10.0 mi NNE 10.4 mph - N/A   Overcast
10:35 PM 32.0 °F 23.0 °F 28.4 °F 87% 30.08 in 10.0 mi NNE 11.5 mph - N/A   Overcast
10:55 PM 30.2 °F 21.3 °F 28.4 °F 93% 30.08 in 10.0 mi NNE 10.4 mph - N/A   Overcast
11:15 PM 30.2 °F 23.4 °F 28.4 °F 93% 30.10 in 10.0 mi NNE 6.9 mph - N/A   Overcast
11:35 PM 30.2 °F 22.6 °F 28.4 °F 93% 30.09 in 10.0 mi NNE 8.1 mph - N/A   Scattered Clouds
11:55 PM 30.2 °F 24.3 °F 26.6 °F 86% 30.10 in 10.0 mi North 5.8 mph - N/A   Partly Cloudy